Waarnemingen

Advertentie
Mijn weer
Inverbervie, Groot Brittannië (3088): temperatuur & dauwpunt: 17.11.2017 11:00:00 - 23.11.2017 11:00:00 (GMT)Inverbervie, Groot Brittannië (3088): windsnelheid & windstoten: 17.11.2017 11:00:00 - 23.11.2017 11:00:00 (GMT)Inverbervie, Groot Brittannië (3088): windrichting: 17.11.2017 11:00:00 - 23.11.2017 11:00:00 (GMT)Inverbervie, Groot Brittannië (3088): luchtdruk: 17.11.2017 11:00:00 - 23.11.2017 11:00:00 (GMT)Inverbervie, Groot Brittannië (3088): zicht: 17.11.2017 11:00:00 - 23.11.2017 11:00:00 (GMT)Inverbervie, Groot Brittannië (3088): neerslag: 17.11.2017 11:00:00 - 23.11.2017 11:00:00 (GMT)
Datum & Tijd tt [°C] td [°C] ff [km/u] ff [kn] fx [km/u] fx [kn] dd ppp [hPa] vv [km] rr [mm]
23.11.2017 11:00:00 - - - - - - - - - 0,0
23.11.2017 10:00:00 1,2 1,1 18 10 - - W 982,0 45 0,4
23.11.2017 09:00:00 0,7 0,7 15 8 - - WNW 980,9 45 0,0
23.11.2017 08:00:00 0,0 0,0 11 6 - - W 980,3 13 0,0
23.11.2017 07:00:00 0,3 0,3 8 4 - - W 979,3 0,4 0,2
23.11.2017 06:00:00 0,6 0,6 13 7 - - WNW 978,8 0,6 0,6
23.11.2017 05:00:00 1,1 1,1 8 4 - - W 978,2 7 1,4
23.11.2017 04:00:00 1,7 1,7 8 4 - - NW 977,2 7 0,6
23.11.2017 03:00:00 1,7 1,6 9 5 - - NNW 977,4 12 0,6
23.11.2017 02:00:00 1,7 1,5 16 9 - - NNW 977,4 24 0,4
23.11.2017 01:00:00 1,9 1,8 15 8 - - NNW 978,1 12 -
23.11.2017 00:00:00 2,3 2,1 16 9 - - NW 978,4 10 1,2
22.11.2017 23:00:00 2,7 2,4 11 6 - - WNW 978,6 10 1,4
22.11.2017 22:00:00 2,8 2,3 13 7 - - NNW 978,8 12 0,2
22.11.2017 21:00:00 2,8 2,2 18 10 - - N 979,2 40 0,0
22.11.2017 20:00:00 2,8 2,1 22 12 - - N 979,9 40 0,0
22.11.2017 19:00:00 2,9 2,3 22 12 - - N 980,8 16 0,2
22.11.2017 18:00:00 2,8 2,5 22 12 - - N 981,3 5 0,4
22.11.2017 17:00:00 3,3 3,0 26 14 - - N 981,5 19 1,0
22.11.2017 16:00:00 4,0 3,6 24 13 - - N 981,6 15 0,6
22.11.2017 15:00:00 4,6 4,2 22 12 - - NNO 981,7 30 0,8
22.11.2017 14:00:00 5,2 4,9 13 7 - - N 983,1 13 1,4
22.11.2017 13:00:00 5,4 5,2 8 4 - - N 983,8 12 1,2
22.11.2017 12:00:00 5,6 5,2 5 3 - - W 984,8 21 0,4
22.11.2017 11:00:00 5,9 5,4 11 6 - - ZW 985,7 21 0,0
22.11.2017 10:00:00 6,1 5,4 18 10 - - ZW 986,3 45 0,0
22.11.2017 09:00:00 5,8 4,7 18 10 - - ZW 986,8 50 0,0
22.11.2017 08:00:00 5,8 4,7 18 10 - - ZW 986,9 50 0,0
22.11.2017 07:00:00 6,0 4,9 22 12 - - ZW 987,1 50 0,0
22.11.2017 06:00:00 6,6 4,4 24 13 46 25 WZW 986,7 45 0,0
22.11.2017 05:00:00 7,2 5,0 26 14 - - WZW 986,8 50 0,0
22.11.2017 04:00:00 7,5 4,6 28 15 54 29 W 987,0 50 0,0
22.11.2017 03:00:00 7,8 6,0 37 20 50 27 WZW 986,9 50 0,0
22.11.2017 02:00:00 8,9 6,7 28 15 46 25 W 986,3 50 0,0
22.11.2017 01:00:00 9,7 9,6 29 16 57 31 WZW 986,3 50 0,2
22.11.2017 00:00:00 10,4 10,3 44 24 63 34 WZW 986,1 2,5 0,4
21.11.2017 23:00:00 10,9 10,8 37 20 55 30 ZW 986,1 35 -
21.11.2017 22:00:00 10,8 10,8 42 23 59 32 ZW 986,4 35 0,0
21.11.2017 21:00:00 9,7 9,7 35 19 52 28 ZW 987,4 8 0,0
21.11.2017 20:00:00 9,7 9,7 41 22 57 31 ZW 988,1 3,0 0,0
21.11.2017 19:00:00 9,5 9,5 41 22 50 27 ZZW 989,4 6 0,2
21.11.2017 18:00:00 9,6 9,6 37 20 48 26 ZZW 990,9 4,0 0,0
21.11.2017 17:00:00 9,4 9,4 28 15 - - Z 992,2 0,1 0,6
21.11.2017 16:00:00 8,8 8,8 16 9 - - Z 994,4 0,1 2,8
21.11.2017 15:00:00 8,2 8,2 9 5 - - Z 996,2 0,1 -
21.11.2017 14:00:00 8,1 8,1 9 5 - - ZW 998,0 0,1 1,0
21.11.2017 13:00:00 8,3 8,3 15 8 - - ZZW 999,4 0,1 0,6
21.11.2017 12:00:00 8,2 8,2 15 8 - - Z 1000,7 0,1 0,8
21.11.2017 11:00:00 8,5 8,5 24 13 - - Z 1001,9 0,1 0,6
21.11.2017 10:00:00 8,3 8,3 26 14 - - ZZO 1002,8 0,1 -
21.11.2017 09:00:00 8,2 8,2 31 17 46 25 ZZO 1003,8 0,1 0,2
21.11.2017 08:00:00 7,8 7,8 31 17 50 27 ZZO 1004,4 0,1 0,2
21.11.2017 07:00:00 7,7 7,7 31 17 - - ZO 1004,8 0,3 0,6
21.11.2017 06:00:00 7,5 7,5 29 16 - - ZO 1005,3 0,6 0,4
21.11.2017 05:00:00 7,4 7,4 26 14 - - ZO 1005,7 0,3 1,2
21.11.2017 04:00:00 7,3 7,3 22 12 - - OZO 1006,4 0,1 1,2
21.11.2017 03:00:00 6,9 6,9 24 13 - - OZO 1006,8 0,4 1,0
21.11.2017 02:00:00 6,8 6,8 24 13 - - O 1007,3 1,5 0,8
21.11.2017 01:00:00 6,8 6,7 24 13 - - OZO 1007,9 5 0,2
21.11.2017 00:00:00 6,8 6,6 24 13 - - OZO 1008,3 3,5 0,2
20.11.2017 23:00:00 6,7 6,5 21 11 - - OZO 1008,4 3,6 0,0
20.11.2017 22:00:00 7,2 6,6 21 11 - - OZO 1008,2 30 0,0
20.11.2017 21:00:00 6,9 6,9 28 15 - - O 1008,4 19 0,0
20.11.2017 20:00:00 6,6 6,6 29 16 - - O 1008,4 5 0,4
20.11.2017 19:00:00 6,8 6,8 21 11 - - O 1008,7 0,3 0,6
20.11.2017 18:00:00 6,7 6,7 28 15 46 25 O 1008,3 3,2 0,2
20.11.2017 17:00:00 6,6 6,6 37 20 50 27 O 1007,1 6 0,2
20.11.2017 16:00:00 6,5 6,5 37 20 46 25 ONO 1007,4 5 -
20.11.2017 15:00:00 6,7 6,7 34 18 48 26 ONO 1007,0 0,5 0,6
20.11.2017 14:00:00 7,0 7,0 39 21 - - ONO 1006,6 0,7 0,6
20.11.2017 13:00:00 7,2 7,2 37 20 48 26 O 1006,1 0,2 0,6
20.11.2017 12:00:00 7,3 7,3 34 18 - - O 1005,7 3,2 1,0
20.11.2017 11:00:00 7,1 7,1 28 15 - - O 1006,5 4,7 3,6
20.11.2017 10:00:00 6,8 6,7 26 14 - - O 1006,9 9 2,8
20.11.2017 09:00:00 6,5 6,4 24 13 - - OZO 1007,2 7 1,8
20.11.2017 08:00:00 5,8 5,6 26 14 - - OZO 1007,5 11 2,8
20.11.2017 07:00:00 5,3 5,2 24 13 - - ZO 1008,3 8 3,2
20.11.2017 06:00:00 4,8 4,5 26 14 - - ZO 1009,0 4,1 -
20.11.2017 05:00:00 4,4 3,8 22 12 - - ZO 1010,2 15 1,0
20.11.2017 04:00:00 3,5 3,1 11 6 - - ZO 1011,6 10 0,6
20.11.2017 03:00:00 2,4 1,9 4 2 - - OZO 1012,8 17 0,4
20.11.2017 02:00:00 1,6 1,1 2 1 - - NNW 1013,9 12 0,8
20.11.2017 01:00:00 1,9 1,1 5 3 - - W 1015,0 14 1,4
20.11.2017 00:00:00 2,7 1,1 9 5 - - WZW 1016,0 10 0,4
19.11.2017 23:00:00 3,2 0,1 8 4 - - W 1016,4 35 0,0
19.11.2017 22:00:00 2,7 0,1 9 5 - - WNW 1017,4 35 0,0
19.11.2017 21:00:00 2,8 0,1 8 4 - - WZW 1017,9 30 -
19.11.2017 20:00:00 2,6 0,3 5 3 - - W 1018,7 29 0,0
19.11.2017 19:00:00 3,3 0,4 5 3 - - WNW 1018,9 30 0,0
19.11.2017 18:00:00 3,5 0,4 8 4 - - NW 1019,4 30 0,0
19.11.2017 17:00:00 3,4 0,7 9 5 - - WNW 1019,7 30 0,0
19.11.2017 16:00:00 3,7 0,6 13 7 - - WNW 1020,1 25 0,0
19.11.2017 15:00:00 3,9 0,6 8 4 - - W 1020,2 40 0,0
19.11.2017 14:00:00 5,3 0,4 13 7 - - W 1020,3 30 0,0
19.11.2017 13:00:00 5,7 -0,6 11 6 - - W 1020,7 29 0,0
19.11.2017 12:00:00 5,2 0,0 15 8 - - W 1021,0 18 0,0
19.11.2017 11:00:00 4,7 0,0 13 7 - - WNW 1020,7 35 0,0
19.11.2017 10:00:00 3,2 -0,3 13 7 - - W 1020,9 27 0,0
19.11.2017 09:00:00 1,7 -0,8 18 10 - - WNW 1020,7 29 0,0
19.11.2017 08:00:00 2,0 -0,5 28 15 - - NW 1020,3 28 -
19.11.2017 07:00:00 2,2 -0,5 26 14 - - WNW 1019,7 29 0,0
19.11.2017 06:00:00 2,7 -0,8 18 10 - - WNW 1020,0 24 0,0
19.11.2017 05:00:00 3,0 -0,8 26 14 - - WNW 1019,7 19 0,0
19.11.2017 04:00:00 3,2 -1,1 28 15 48 26 WNW 1019,3 20 0,0
19.11.2017 03:00:00 3,4 -1,0 35 19 48 26 WNW 1018,8 30 0,0
19.11.2017 02:00:00 3,3 -0,6 31 17 - - WNW 1018,8 27 0,0
19.11.2017 01:00:00 3,3 -0,4 26 14 - - WNW 1018,4 30 0,0
19.11.2017 00:00:00 3,4 0,0 26 14 - - WNW 1018,1 30 0,0
18.11.2017 23:00:00 3,5 0,7 22 12 - - WNW 1017,7 40 0,0
18.11.2017 22:00:00 3,4 0,6 21 11 - - WNW 1017,3 40 0,0
18.11.2017 21:00:00 3,6 0,5 26 14 48 26 WNW 1017,2 40 0,0
18.11.2017 20:00:00 3,6 0,4 31 17 48 26 WNW 1016,5 40 0,0
18.11.2017 19:00:00 3,7 -0,4 31 17 55 30 NW 1016,4 30 0,0
18.11.2017 18:00:00 4,1 -1,3 37 20 59 32 NW 1015,7 35 0,0
18.11.2017 17:00:00 4,2 -2,3 24 13 - - WNW 1015,4 30 0,0
18.11.2017 16:00:00 4,6 -2,9 29 16 55 30 W 1015,4 29 0,0
18.11.2017 15:00:00 5,3 -2,6 28 15 52 28 W 1015,6 27 0,0
18.11.2017 14:00:00 5,8 -2,7 37 20 63 34 WNW 1015,0 35 0,0
18.11.2017 13:00:00 5,7 -2,7 34 18 57 31 WNW 1014,9 30 0,0
18.11.2017 12:00:00 5,6 -2,6 28 15 59 32 WNW 1015,3 40 0,0
18.11.2017 11:00:00 4,9 -2,2 34 18 48 26 WNW 1015,1 28 0,0
18.11.2017 10:00:00 4,3 -2,8 22 12 50 27 W 1015,4 29 0,0
18.11.2017 09:00:00 3,5 -2,4 26 14 - - W 1015,5 30 0,0
18.11.2017 08:00:00 3,2 -2,3 24 13 52 28 W 1015,2 30 0,0
18.11.2017 07:00:00 3,2 -1,7 34 18 59 32 WNW 1014,2 30 0,0
18.11.2017 06:00:00 3,4 -0,8 39 21 61 33 NW 1013,7 35 0,0
18.11.2017 05:00:00 3,6 -0,9 37 20 65 35 NW 1013,7 45 0,0
18.11.2017 04:00:00 3,6 -0,4 42 23 67 36 NW 1013,2 50 0,0
18.11.2017 03:00:00 4,4 1,1 24 13 55 30 WNW 1013,4 35 0,0
18.11.2017 02:00:00 4,0 2,0 18 10 - - NW 1013,5 45 0,0
18.11.2017 01:00:00 5,4 2,1 21 11 - - W 1013,1 40 0,0
18.11.2017 00:00:00 5,0 2,2 34 18 48 26 W 1012,9 40 0,0
17.11.2017 23:00:00 5,4 2,2 35 19 50 27 W 1012,8 45 0,0
17.11.2017 22:00:00 5,6 2,2 37 20 55 30 W 1013,3 45 0,0
17.11.2017 21:00:00 5,7 2,0 37 20 59 32 W 1013,7 45 0,0
17.11.2017 20:00:00 5,6 2,2 31 17 52 28 W 1014,1 50 0,0
17.11.2017 19:00:00 5,4 2,2 39 21 54 29 WZW 1014,7 45 0,0
17.11.2017 18:00:00 5,5 2,4 35 19 57 31 WZW 1015,5 45 0,0
17.11.2017 17:00:00 6,0 2,7 42 23 57 31 WZW 1015,8 50 0,0
17.11.2017 16:00:00 6,3 2,7 37 20 57 31 W 1016,5 50 0,0
17.11.2017 15:00:00 7,3 3,0 39 21 50 27 WZW 1016,8 45 0,0
17.11.2017 14:00:00 7,5 3,6 31 17 - - ZW 1017,8 45 0,0
17.11.2017 13:00:00 5,6 3,8 26 14 - - ZZW 1019,0 25 0,0
17.11.2017 12:00:00 4,9 3,4 28 15 - - WZW 1019,5 27 0,0
17.11.2017 11:00:00 4,3 3,0 31 17 - - ZW 1019,9 35 0,0

tt = temperatuur
td = dauwpunt
ff = windsnelheid
fx = windstoten
dd = windrichting
ppp = luchtdruk
vv = zicht
rr = neerslag

Weerstations in de omgeving